STARLINK-1304, 45376

Orbit data source: Space-Track

STARLINK-1304, 45376 is a payload satellite owned by SpaceX/Seattle (US) in LEO that was launched on Wed, 18 Mar 2020 UTC via an FALCON 9 launch vehicle from the Air Force Eastern Test Range (AFETR). Payload-class satellites include a variety of spacecraft equipped with specific instruments for various scientific and technological missions. These include communications satellites like Starlink; space stations such as the ISS; scientific satellites like the Hubble; Earth observation satellites from companies like Planet Labs, Umbra, and HawkEye 360; GPS; miniature CubeSats for education and research; and military/defense satellites.

Loading next visibility...
Identifier
45376, 2020-019S
Orbit
LEO
Country
Flag of USUS
Related business
Manufacturer
SpaceX/Seattle
Mission
Operational Commercial Communications
Bus & Motor
STARLINK, Unknown motor
Mass
260 kg wet, ~248 kg dry
Launch date (UTC)
2020-03-18 (6 years ago)
Launch vehicle
FALCON 9
Launch site
Air Force Eastern Test Range (AFETR)
Object type
Payload
Rocket body
Debris
Shape & HBR
Box + 1 Pan, 10.1 m
Radar Cross Section
13.562 m², Large (>1 m²)

Expand to show TLE details & history
Last TLE update: 2 days ago

TLE from 2 days ago
0 STARLINK-1304
1 45376U 20019S   26033.19963559  .00073279  00000-0  16579-2 0  9996
2 45376  53.0555 318.5448 0005405 101.6720 258.4892 15.42494210324485
Epoch: 2026-02-02T04:47Z
TLE epoch observation values (Epoch: 2026-02-02T04:47:28.514Z)
Latitude
-0.00001°
Longitude
114.27764°
Altitude
440.381 km
Speed
7.649 km/s
True Right ascension
21h 14m 10s
True Declination
0° 00' 00"
Sunlit
Object was in daylight at epoch
Visualization orbit readout
Latitude
Unknown
Longitude
Unknown
Altitude
Unknown
Speed
Unknown
Apparent Right ascension
Unknown
Apparent Declination
Unknown
Sunlit
N/A
Visualization observer readout
Local Sidereal Time
03:54:32
Azimuth
Unknown
Elevation
Unknown
Doppler factor
Unknown
Orbital elements
Apogee altitude
442.71 km
Perigee altitude
435.341 km
Semi-major axis
6,817.163 km
Eccentricity
0.00054
Inclination
53.0555°
RAAN
318.5448°
Arg. of periapsis
101.672°
True anomaly
258.42852°
Mean anomaly
258.4892°
Eccentric anomaly
258.45886°
Mean motion
3.85601 °/min
Orbital period
93.36 mins
BSTAR
0.0016579
Loading maneuver chart data...
Computing Atmospheric mass density...
Loading historical data...
Loading historical data...
Loading historical data...
Loading historical data...
Loading historical data...
Loading historical data...
Loading historical data...

Documentation

Showing up to 5 results
|